Location: Newark
(16.3678°N, 77.8722°E)
Time: 04:27:41
(UTC+00:00)

Tiros 1 - Pass Details

Date: 18 December 2019
Orbit: 630 x 664 km, 48.4° (Epoch: 19 January)

Event Time Altitude Azimuth Distance (km) Brightness Sun altitude
Rises 06:03:44 0° 314° (NW) 2,914 10.2 49.0°
Reaches altitude 10° 06:06:04 10° 311° (NW) 2,002 9.5 49.1°
Maximum altitude 06:10:37 63° 230° (SW) 697 8.4 49.4°
Drops below altitude 10° 06:15:09 10° 149° (SSE) 1,995 10.5 49.6°
Sets 06:17:29 0° 146° (SE) 2,901 11.1 49.7°
